www.pogodaiklimat.ru

Погода и климат >> Архив погоды >> Иран >> Bandar Deyr


ПОГОДА в Bandar Deyr

  • Прогноз погоды в Bandar Deyr
  • Монитор погоды в Bandar Deyr
  • Климат города

АРХИВ ПОГОДЫ в Bandar Deyr

Время (UTC), дата Ветер
(напр.,м/с)
 
Видим.   Явления Облачность Т
(С)
Тd
(С)
f
(%)
Тe
(С)
Тes
(С)
Комфортность P
(гПа)
Po
(гПа)
Тmin
(С)
Tmax
(С)
R
(мм)
R24
(мм)
S
(см)
00 5.12 СЗ 2 10 км ясно +19.9 +13.0 64 +22 +22 комфорт 1015.2 1014.7
03 5.12 С 3 10 км ясно +18.7 +12.4 67 +20 +20 1016.3 1015.9 +17.7
06 5.12 С 2 10 км 6/0
[Cs]
+24.2 1017.9 1017.5
09 5.12 ЮВ 2 10 км 8/0
[Cs]
+26.0 +19.6 68 +32 +39 очень
душно
1016.7 1016.2
12 5.12 Ю 3 10 км 8/0
[Cs]
+26.0 1015.0 1014.5
15 5.12 ЮВ 2 10 км 6/0
[Cs]
+24.8 +17.5 64 +29 +29 душно 1014.5 1014.0 +26.9
18 5.12 С 2 10 км ясно +21.8 +17.6 77 +26 +26 душно 1015.3 1014.8
21 5.12 С 2 10 км ясно +20.6 +16.6 78 +25 +25 комфорт 1014.0 1013.1
00 6.12 С 2 10 км ясно +19.8 +16.1 79 +23 +23 комфорт 1012.6 1012.1
03 6.12 С 2 10 км ясно +18.6 +15.6 83 +20 +20 1013.1 1012.7 +18.5
06 6.12 С 2 8000 м мгла 4/0
[Ac As]
+23.3 +17.6 70 +29 +32 душно 1014.5 1014.1
09 6.12 ЮВ 4 8000 м мгла 9/8 750 м
[Cu Sc Ac As]
+26.1 +19.5 67 +32 +32 очень
душно
1012.8 1012.4
12 6.12 ЮВ 5 8000 м мгла 8/4 1000 м
[Sc Ac As]
+25.6 +19.8 70 +31 +32 очень
душно
1011.6 1011.1
15 6.12 ЮВ 3 8000 м мгла 8/0
[Ac As]
+25.0 +18.2 66 +29 +29 душно 1011.9 1011.4 +26.7
18 6.12 ЮВ 4 8000 м мгла 9/4 1050 м
[Sc Ac As]
+25.0 +18.6 68 +30 +30 душно 1012.7 1012.3
21 6.12 В 2 8000 м мгла 8/3 1050 м
[Sc Ac As]
+23.3 +17.7 71 +29 +29 душно 1011.4 1010.9
09 7.12 ЮВ 2 8000 м мгла 4/0
[Ac trans]
+25.0 +17.3 62 +29 +35 душно 1013.2 1012.7
12 7.12 СЗ 2 10 км ясно +25.2 1012.4 1011.9
15 7.12 З 2 15 км ясно +22.0 +14.5 62 +25 +25 комфорт 1013.1 1012.6 +25.7
18 7.12 СЗ 4 12 км ясно +20.2 +14.0 68 +23 +23 комфорт 1014.1 1013.7 -34.8 0.5
21 7.12 СЗ 5 10 км ясно +18.6 +11.7 64 +19 +19 1014.1
00 8.12 СЗ 5 10 км ясно +19.0 +9.6 54 +19 +19 1014.8 1014.4 0.5
03 8.12 СЗ 3 10 км ясно +18.2 +10.8 62 +19 +19 1015.8 1015.4 +17.4
06 8.12 СЗ 3 8000 м ясно +21.1 1017.8 1017.4
09 8.12 СЗ 4 10 км ясно +24.7 +6.8 32 +25 +31 комфорт 1017.3 1016.9
12 8.12 СЗ 4 10 км ясно +24.6 1016.1 1015.7
15 8.12 СЗ 4 10 км ясно +21.1 +8.2 43 +22 +22 комфорт 1015.8 1015.4 +25.1
18 8.12 З 2 10 км ясно +20.2 +7.4 43 +22 +22 комфорт 1016.3 1015.9
21 8.12 СЗ 3 10 км ясно +20.0 +7.6 45 +21 +21 комфорт 1016.1 1015.4
00 9.12 З 2 10 км ясно +18.5 +7.8 50 +19 +19 1015.8 1015.4
03 9.12 СЗ 3 10 км ясно +18.2 +7.4 49 +18 +18 1015.9 1015.5 +18.0
06 9.12 СЗ 2 10 км ясно +22.4 1018.0 1017.5
09 9.12 З 3 10 км ясно +26.2 +7.4 30 +26 +33 жарко 1016.8 1016.4
12 9.12 СЗ 4 10 км 6/0
[Cs]
+25.0 1015.1 1014.7
15 9.12 СЗ 2 10 км 4/0
[Ci sp]
+23.0 +7.2 36 +24 +24 комфорт 1015.8 1015.4 +27.0
18 9.12 СЗ 3 10 км ясно +21.2 +7.8 42 +22 +22 комфорт 1016.5 1016.1 0.3
21 9.12 СЗ 5 10 км ясно +19.2 +10.2 56 +20 +20 1015.8 1015.5
00 10.12 СЗ 5 10 км ясно +20.2 +8.8 48 +21 +21 комфорт 1015.1 1014.7
03 10.12 СЗ 5 10 км 8/0
[Cs]
+19.2 +7.9 48 +20 +20 1015.6 1015.1 +18.8
06 10.12 З 2 10 км 4/0
[Ac trans]
+22.8 1016.4 1015.9
09 10.12 СЗ 3 10 км 5/0
[Ci fib]
+26.6 +6.8 28 +26 +33 жарко 1014.3 1013.9
12 10.12 СЗ 4 10 км 6/0
[Cs]
+25.2 1013.0 1012.6
15 10.12 СЗ 5 10 км 6/0
[Ac As]
+23.6 +6.2 33 +24 +24 комфорт 1014.3 1013.9 +27.1
18 10.12 СЗ 7 10 км 6/0
[Ac As]
+21.5 +10.0 48 +23 +23 комфорт 1015.6 1015.1
21 10.12 СЗ 5 10 км 5/0
[Ac As]
+20.6 +9.2 48 +22 +22 комфорт 1015.6 1015.1
00 11.12 СЗ 6 10 км 5/0
[Ac As]
+19.8 +8.5 48 +20 +20 1015.3 1014.8
03 11.12 СЗ 5 10 км 4/0
[Ac As]
+18.9 +7.0 46 +19 +19 1016.5 1016.0 +18.7
06 11.12 СЗ 5 10 км ясно +21.2 1018.2 1017.7
09 11.12 СЗ 5 15 км ясно +24.0 +8.2 36 +24 +29 комфорт 1017.1 1016.7
12 11.12 СЗ 4 15 км ясно +25.2 1015.6 1015.2
15 11.12 СЗ 5 15 км ясно +21.0 +10.8 52 +23 +23 комфорт 1016.2 1015.8 +25.5
18 11.12 СЗ 5 10 км ясно +19.2 +11.6 61 +20 +20 1016.5 1016.1
21 11.12 СЗ 4 10 км ясно +18.6 +11.0 61 +19 +19 1016.6

 

Местоположение метеостанции Bandar Deyr (Иран): широта 27.83 долгота 51.93 высота над уровнем моря 4 м.

В архиве по умолчанию представлена погода в Bandar Deyr за последнюю неделю. Архивные данные за месяц целиком и за предыдущие месяцы, начиная с января 2011 года, Вы можете получить, выбрав интересующий диапазон дат из раскрывающегося списка и нажав кнопку "Ввод!".


*Определитесь, кто Вы:
робот инопланетянин человек

Внимание! Время в таблицах - всемирное. Для получения местного времени необходимо прибавить поправку, которая в Bandar Deyr равна 3.5 ч.

Смотрите также архив погоды в соседних городах и на ближайших метеорологических станциях:

Погода в Bushehr (Иран) (163 км)
Погода в Bushehr Airport (Иран) (167 км)
Погода в Shiraz (Иран) (198 км)
Погода в Fasa (Иран) (213 км)
Погода в Bahrain (Бахрейн) (215 км)
Погода в Khark (Иран) (224 км)
Погода в Dhahran (Саудовская Аравия) (246 км)
Погода в Kish Island (Иран) (251 км)
Погода в King Fahd Int Airport (Саудовская Аравия) (259 км)
Погода в Hamad Int Airport (Катар) (287 км)

Пояснения к столбцам:

Ветер - указаны скорость ветра в м/с - средняя за 10 мин, порывы в срок и между сроками (в фигурных скобках) и направление, откуда дует ветер: С - северный, СВ - северо-восточный, В - восточный, ЮВ - юго-восточный, Ю - южный, ЮЗ - юго-западный, З - западный, СЗ - северо-западный.
Видимость - горизонтальная дальность видимости в метрах или километрах. При видимости от 1 до 10 км при отсутствии осадков обычно наблюдается дымка, при ухудшении видимости до 1 км и менее - туман. В сухую погоду видимость может ухудшаться дымом, пылью или мглою.
Явления - указаны атмосферные явления, наблюдавшиеся в срок или в последний час перед сроком; фигурными скобками обозначены явления, наблюдавшиеся между сроками (за 1-3 часа до срока); квадратными скобками обозначены град или гололедные отложения с указанием их диаметра в мм.
Облачность - указаны через наклонную черту общая и нижняя облачность в баллах и высота нижней границы облаков в метрах; квадратными скобками обозначены формы облаков: Ci - перистые, Cs - перисто-слоистые, Cc - перисто-кучевые, Ac - высококучевые, As - высокослоистые, Sc - слоисто-кучевые, Ns - слоисто-дождевые, Cu - кучевые, Cb - кучево-дождевые. Подробнее классификацию облаков см. в Атласе облаков (PDF).
T - Температура воздуха - температура, измеренная на высоте 2 м над землей.
Td - Температура точки росы - температура, при понижении до которой содержащийся в воздухе водяной пар достигнет насыщения.
f - Относительная влажность воздуха - влажноcть воздуха, измеренная на высоте 2 м над землей.
Te - Эффективная температура - температура, которую ощущает одетый по сезону человек в тени. Характеристика душности погоды. При расчете учитывается влияние влажности воздуха и скорости ветра на теплоощущения человека.
Tes - Эффективная температура на солнце - температура, которую ощущает человек, с поправкой на солнечный нагрев. Характеристика знойности погоды. Зависит от высоты солнца над горизонтом, облачности и скорости ветра. Ночью, в пасмурную погоду, а также при ветре 12 м/с и более поправка равна нулю.
P - Атмосферное давление - приведенное к уровню моря атмосферное давление.
Po - Атмосферное давление - измеренное на уровне метеостанции атмосферное давление.
Tmin - Минимальная температура - минимум температуры воздуха на высоте 2 м над землей.
Tmax - Максимальная температура - максимум температуры воздуха на высоте 2 м над землей.
R - Количество осадков - Количество выпавших осадков за период времени, мм. При наведении курсора мыши на число - период времени, за который выпало указанное количество осадков.
R24 - Количество осадков - Количество выпавших осадков за 24 часа, мм.
S - Снежный покров - Высота снежного покрова, см. При наведении курсора мыши на число - состояние снежного покрова и степень покрытия местности в баллах.